SL-8 R/B

Satellite information

Favourite Embed

Satellite Type and Status

ROCKET BODYIN ORBIT

Key statistics

Satellite SL-8 R/B at a glance.

Uptime

13847

Days in orbit

Revolutions

≈ 14.4

Per day

Orbit

LEO

Low Earth Orbit

Inclination

74.0

Latest

Satellite identification and parameters

Extended collection of information and parameters for SL-8 R/B.

Object identification

Identified? True

Debris? False

Object name: SL-8 R/B

International designator: 1987-049B

Object number (NORAD): 18096

Object ID (CCSDS): 18096

Country: COMMONWEALTH OF INDEPENDENT STATES (CIS)

Current information (Y/N): Y

RCS size: LARGE

Orbital parameters

Period: 100.157 minutes

Inclination: 74.0416 deg

SMA: 7144.08 km

Apoapsis: 781.135 km

Periapsis: 750.755 km

RAAN: 332.9182 deg

Eccentricy: 0.0021262

Argument of periapsis: 159.0196 deg

Mean anomaly: 201.1836 deg

Mean motion: 14.37749738 rev/day

Mean motion (dot): 0.00000368 rev/day2

B* drag term: 0.00013076 1/REarth

Two-line elements (TLE)

Creation date: May 7, 2025, 3:14 a.m.

Reference frame: TEME

Reference center: EARTH

Epoch: May 6, 2025, 10:31 p.m. UTC

TLE line 0: 0 SL-8 R/B

TLE line 1: 1 18096U 87049B 25126.93829309 .00000368 00000-0 13076-3 0 9998

TLE line 2: 2 18096 74.0416 332.9182 0021262 159.0196 201.1836 14.37749738985398

Live tracking on map

Real-time ground track for satellite SL-8 R/B.

In-orbit conjunctions

A list of the most updated potential collisions computed for object SL-8 R/B.

Target Orbit TCA Probability of collision Miss distance Type
FENGYUN 1C DEB SSO 2024-12-08 09:14:29 0.0006080706 82.0 (m) DEBRIS
FENGYUN 1C DEB SSO 2024-09-28 16:22:15 0.0002516062 412.0 (m) DEBRIS
FENGYUN 1C DEB SSO 2024-06-01 04:00:56 0.0003868231 114.0 (m) DEBRIS

Associated space launch

Military communications satellite

SL-8 R/B was lifted into orbit during the mission ‘Kosmos-3M | Strela-2M 42’, on board a Kosmos-3M space rocket.

The launch took place on June 9, 1987, 2:45 p.m. from 132/1 (132L).

For more information about the launch, click the button.

Launch to space Kosmos-3M | Strela-2M 42
Kosmos-3M | Strela-2M 42

Agency: N/A

Status: Launch Successful

Launch date: June 9, 1987, 2:45 p.m. UTC

Rocket: Kosmos-3M

Launch pad: 132/1 (132L)

Location: Plesetsk Cosmodrome, Russian Federation

...

Latest news about this satellite

There are no fresh news available about this satellite. Check back as we update our databases every day.


Newsletter sign-up

Weekly statistics, charts and insights to help you stay on top of the space industry.